Location: York
(31.8935°S, 116.7682°E)
Time: 14:02:03
(UTC+08:00)

X-37B - Visible Passes

Search period start: 04 August 2020 00:00
Search period end: 14 August 2020 00:00
Orbit: 384 x 389 km, 45.0° (Epoch: 29 July)

Date Brightness Start Highest point End Pass type
(mag) Time Alt. Az. Time Alt. Az. Time Alt. Az.
08 Aug ? 06:24:23 10° N 06:26:18 15° NE 06:28:14 10° E visible
10 Aug ? 06:02:41 10° NNW 06:05:36 32° NE 06:08:32 10° ESE visible
11 Aug ? 05:05:34 11° NNE 05:07:12 15° NE 05:09:07 10° E visible
12 Aug ? 05:43:00 21° NW 05:44:59 75° NE 05:48:13 10° ESE visible
13 Aug ? 04:47:48 23° E 04:47:48 23° E 04:49:26 10° ESE visible
13 Aug ? 06:20:20 10° W 06:23:08 26° SSW 06:25:57 10° SSE visible
